Overview Statistics Trail Chart Weather Telemetry Raw packets
 

This is the latest recevied weather packets stored in our database for station/object DL2GPS-3. If no packets are shown the sender has not sent any weather packets the latest 10 day(s).

<< 28 29 30 31 32 33 34 >>
Time Temp. Humidity Pressure Rain* Wind** Luminosity Snow
1788272955 21.11° C 46% 1025 hPa - - - -
1788272350 21.67° C 48% 1025.1 hPa - - - -
1788271745 21.11° C 51% 1025.1 hPa - - - -
1788271140 20° C 54% 1025.2 hPa - - - -
1788270536 20.56° C 53% 1025.2 hPa - - - -
1788269931 20.56° C 52% 1025.4 hPa - - - -
1788269325 21.11° C 51% 1025.4 hPa - - - -
1788268720 20.56° C 53% 1025.4 hPa - - - -
1788268115 20.56° C 52% 1025.5 hPa - - - -
1788267510 20° C 54% 1025.6 hPa - - - -
1788266904 20° C 56% 1025.6 hPa - - - -
1788266300 19.44° C 52% 1025.7 hPa - - - -
1788265695 20° C 51% 1025.8 hPa - - - -
1788265091 21.11° C 50% 1025.7 hPa - - - -
1788264486 21.11° C 51% 1025.8 hPa - - - -
1788263880 21.11° C 50% 1025.7 hPa - - - -
1788263276 19.44° C 55% 1025.9 hPa - - - -
1788262671 20° C 53% 1025.9 hPa - - - -
1788262066 20.56° C 51% 1025.9 hPa - - - -
1788261461 20° C 53% 1025.8 hPa - - - -
1788260856 20° C 53% 1025.8 hPa - - - -
1788260251 21.67° C 49% 1025.9 hPa - - - -
1788259646 21.11° C 50% 1025.9 hPa - - - -
1788259041 20° C 57% 1026 hPa - - - -
1788258436 19.44° C 58% 1026 hPa - - - -

* Rain since midnight (hover to see other rain measurements)
** Current wind speed in m/s (hover to see current wind gust speed)